Location: Cheching
(60.0667°N, 164.2167°W)
Time: 22:02:16
(UTC+00:00)

NOAA 15 - Pass Details

Date: 27 January 2021
Orbit: 798 x 812 km, 98.7° (Epoch: 07 March)

Event Time Altitude Azimuth Distance (km) Brightness Sun altitude
Rises 04:50:04 0° 151° (SSE) 3,308 7.6 -13.5°
Reaches altitude 10° 04:52:23 10° 149° (SSE) 2,383 6.9 -13.8°
Maximum altitude 04:57:38 71° 66° (ENE) 857 4.5 -14.4°
Drops below altitude 10° 05:02:56 10° 344° (NNW) 2,408 7.1 -15.1°
Sets 05:05:17 0° 343° (NNW) 3,345 7.9 -15.3°
